North Platte, NE

12:53 AM CDT on April 23, 2017 (GMT -0500)
North Platte Regional-Bird

Weather History for KLBF - March, 2013

Change the Weather History Date:

Thursday, March 21, 2013

  Actual Average Record
Temperature  
Mean Temperature 38 °F 40 °F  
Max Temperature 48 °F 54 °F 86 °F (1910)
Min Temperature 28 °F 25 °F -10 °F (1913)
Degree Days  
Heating Degree Days 27 25  
Month to date heating degree days 596 598  
Since 1 July heating degree days 5556 5626  
Cooling Degree Days 0 0  
Month to date cooling degree days 0 0  
Year to date cooling degree days 0 0  
Moisture  
Dew Point 20 °F    
Average Humidity 45    
Maximum Humidity 58    
Minimum Humidity 31    
Precipitation  
Precipitation 0.01 in 0.04 in 1.56 in (1894)
Month to date precipitation 0.12 0.64  
Year to date precipitation 1.40 1.48  
Snow  
Snow T in 0.10 in 12.60 in (1894)
Month to date snowfall 1.6 3.0  
Since 1 July snowfall 21.5 23.9  
Snow Depth 0.00 in    
Sea Level Pressure  
Sea Level Pressure 29.80 in    
Wind  
Wind Speed 14 mph (SE)    
Max Wind Speed 22 mph    
Max Gust Speed 31 mph    
Visibility 9 miles    
Events Snow    
T = Trace of Precipitation, MM = Missing Value Source: NWS Daily Summary

Daily Weather History Graph

Daily Weather History Graph

Search for Another Location

Airport or City:

Trip Planner

Search our weather history database for the weather conditions in past years. The results will help you decide how hot, cold, wet, or windy it might be!

Date:

Astronomy

Mar. 21, 2013 Rise Set
Actual Time 7:43 AM CDT 7:56 PM CDT
Civil Twilight 7:16 AM CDT 8:23 PM CDT
Nautical Twilight 6:44 AM CDT 8:56 PM CDT
Astronomical Twilight 6:11 AM CDT 9:29 PM CDT
Moon 2:25 PM CDT (3/21) 4:09 AM CDT (3/21)
Length of Visible Light 13h 07m
Length of Day
12h 12m
Waxing Gibbous, 69% of the Moon is Illuminated
Mar 21
Waxing Gibbous
Mar 27
Full
Apr 2
Last Quarter
Apr 10
New
Apr 18
First Quarter

Hourly Weather History & Observations

Time (CDT) Temp. Windchill Dew Point Humidity Pressure Visibility Wind Dir Wind Speed Gust Speed Precip Events Conditions
12:53 AM 35.1 °F 24.5 °F 17.1 °F 48% 29.91 in 10.0 mi SE 18.4 mph 23.0 mph N/A   Overcast
1:53 AM 33.1 °F 21.2 °F 19.9 °F 59% 29.87 in 10.0 mi SE 20.7 mph 27.6 mph 0.01 in   Overcast
2:53 AM 33.1 °F 22.6 °F 19.0 °F 56% 29.84 in 10.0 mi SE 16.1 mph 23.0 mph 0.00 in   Overcast
3:53 AM 33.1 °F 22.2 °F 18.0 °F 54% 29.81 in 10.0 mi SE 17.3 mph - N/A   Overcast
4:53 AM 33.1 °F 25.5 °F 18.0 °F 54% 29.82 in 10.0 mi SE 9.2 mph - N/A   Overcast
5:53 AM 32.0 °F 22.1 °F 16.0 °F 52% 29.80 in 10.0 mi SE 13.8 mph 19.6 mph N/A   Overcast
6:53 AM 30.0 °F 18.7 °F 15.1 °F 54% 29.81 in 10.0 mi SE 16.1 mph 20.7 mph N/A   Overcast
7:53 AM 28.0 °F 17.5 °F 15.1 °F 58% 29.82 in 10.0 mi SE 12.7 mph - N/A   Clear
8:53 AM 30.0 °F 18.7 °F 15.1 °F 54% 29.82 in 10.0 mi SE 16.1 mph 20.7 mph N/A   Clear
9:53 AM 33.1 °F 21.5 °F 16.0 °F 50% 29.81 in 10.0 mi SSE 19.6 mph 31.1 mph N/A   Clear
10:53 AM 36.0 °F 26.7 °F 16.0 °F 44% 29.78 in 10.0 mi SE 15.0 mph 24.2 mph N/A   Clear
11:53 AM 39.9 °F 31.1 °F 17.1 °F 40% 29.76 in 10.0 mi SSE 17.3 mph 25.3 mph N/A   Clear
12:53 PM 42.1 °F 35.7 °F 18.0 °F 38% 29.74 in 10.0 mi SSE 11.5 mph 23.0 mph N/A   Clear
1:53 PM 45.0 °F 38.2 °F 18.0 °F 34% 29.73 in 10.0 mi SE 15.0 mph 25.3 mph N/A   Clear
2:53 PM 45.0 °F 37.9 °F 18.0 °F 34% 29.71 in 10.0 mi SSE 16.1 mph 21.9 mph N/A   Clear
3:53 PM 48.0 °F - 19.0 °F 32% 29.70 in 10.0 mi SSE 15.0 mph 21.9 mph N/A   Clear
4:53 PM 46.0 °F 40.6 °F 19.0 °F 34% 29.72 in 10.0 mi SE 11.5 mph - N/A   Clear
5:53 PM 46.0 °F 40.6 °F 19.0 °F 34% 29.72 in 10.0 mi SE 11.5 mph 21.9 mph N/A   Overcast
6:53 PM 43.0 °F 36.4 °F 19.0 °F 38% 29.74 in 10.0 mi SE 12.7 mph - N/A   Overcast
7:53 PM 41.0 °F 35.2 °F 19.9 °F 43% 29.80 in 9.0 mi South 9.2 mph 17.3 mph N/A   Overcast
8:41 PM 37.4 °F 31.4 °F 26.6 °F 65% 29.77 in 6.0 mi ESE 8.1 mph - 0.00 in Snow Light Snow
8:53 PM 36.0 °F 31.1 °F 27.0 °F 70% 29.84 in 3.0 mi SE 5.8 mph - 0.00 in Snow Light Snow
9:16 PM 35.6 °F 25.5 °F 26.6 °F 70% 29.79 in 10.0 mi East 17.3 mph - 0.00 in   Overcast
9:53 PM 34.0 °F 24.2 °F 25.0 °F 70% 29.86 in 10.0 mi SE 15.0 mph 18.4 mph 0.00 in   Overcast
10:38 PM 33.8 °F 27.7 °F 26.6 °F 75% 29.83 in 3.0 mi SE 6.9 mph - 0.00 in Snow Light Snow
10:45 PM 33.8 °F 25.8 °F 26.6 °F 75% 29.82 in 2.0 mi SE 10.4 mph - 0.00 in Snow Light Snow
10:53 PM 32.0 °F 23.6 °F 28.0 °F 85% 29.88 in 3.0 mi SSE 10.4 mph - 0.00 in Snow Light Snow
11:00 PM 32.0 °F 24.2 °F 26.6 °F 80% 29.82 in 4.0 mi SSE 9.2 mph - 0.00 in Snow Light Snow
11:53 PM 30.9 °F 22.2 °F 27.0 °F 85% 29.87 in 7.0 mi SE 10.4 mph - 0.00 in   Overcast